Regional Weather Roundup
Issued by NWS

Home | Current Version | Previous Version | Text Only | Print | Product List | Glossary On
Versions: 1 2 3 4 5 6 7 8 9 10 11 12 13 14 15 16 17 18 19 20 21 22 23 24 25 26 27 28 29 30 31 32 33 34 35 36 37 38 39 40 41 42 43 44 45 46 47 48 49 50
000
ASUS43 KDTX 201701
RWRMI
MICHIGAN HOURLY REGIONAL WEATHER ROUNDUP
NATIONAL WEATHER SERVICE DETROIT/PONTIAC MI
100 PM EDT THU JUL 20 2017

NOTE: "FAIR" INDICATES FEW OR NO CLOUDS BELOW 12,000 FEET WITH NO
SIGNIFICANT WEATHER AND/OR OBSTRUCTION TO VISIBILITY.

MIZ047>049-052>055-059>063-066>070-074>076-081>083-201800-
SOUTHEAST LOWER MICHIGAN

CITY           SKY/WX    TMP DP  RH WIND       PRES   REMARKS
ADRIAN         CLOUDY    79  67  66 SW3       30.02R
ALMA           SUNNY     83  65  53 W13G23    29.97S
ANN ARBOR      CLOUDY    83  68  60 NW6       30.00R
BAD AXE        CLOUDY    78  67  66 W10       29.95S
CARO           MOSUNNY   83  67  57 W10G17    29.95S
DETROIT CITY   MOSUNNY   84  67  56 VRB5      29.97F
DETROIT        CLOUDY    85  69  58 NW8       29.99R
FLINT          PTSUNNY   80  67  64 SW10      29.98S
GROSSE ILE     PTSUNNY   83  68  60 CALM      29.97S
HILLSDALE      CLOUDY    79  64  61 SW6       30.03R
HOWELL         MOSUNNY   81  65  58 W5        30.00R

CITY           SKY/WX    TMP DP  RH WIND       PRES   REMARKS
JACKSON        PTSUNNY   79  67  66 VRB3      30.02R
LAMBERTVILLE   CLOUDY    81  67  62 W3        30.00R
LANSING        CLOUDY    81  65  58 N7        29.99S
LAPEER         FAIR      81  66  61 W7        29.98S
MASON          MOSUNNY   78  68  71 CALM      30.00S
MONROE         PTSUNNY   82  70  66 W6        29.98S
MT. CLEMENS    PTSUNNY   83  68  60 NW7       29.96S
PONTIAC        PTSUNNY   81  66  60 W12       29.99S
PORT HOPE        N/A     73  68  84 NE3       29.92S
PORT HURON     CLOUDY    82  66  57 W7        29.96S
TRI CITIES     SUNNY     83  70  64 W9        29.96F
MIDLAND        FAIR      85  68  56 W12       29.93F
TROY           MOSUNNY   83  65  55 W6        30.00S
SAGINAW HB     MOSUNNY   81  66  61 W10G18    29.96S
$$
MIZ043>046-050>051-056>058-064>065-071>073-077>080-201800-
SOUTHWEST LOWER MICHIGAN

CITY           SKY/WX    TMP DP  RH WIND       PRES   REMARKS
BATTLE CREEK   CLOUDY    81  69  67 W10       30.01R
BENTON HARBOR  CLOUDY    80  69  69 SW17G25   29.98S
BIG RAPIDS     PTSUNNY   81  62  52 NW10G21   29.97S
COLDWATER      CLOUDY    80  70  73 W3        30.01S
FREMONT        CLOUDY    82  65  57 W12       29.98S
HOLLAND        CLOUDY    75  68  78 W7        30.01R
GRAND RAPIDS   CLOUDY    80  68  66 W10       29.98S
IONIA          PTSUNNY   82  66  59 W8        29.98S
KALAMAZOO      CLOUDY    81  69  67 W14       30.00R
LUDINGTON      CLOUDY    79  68  70 W8        29.97S
MARSHALL       PTSUNNY   80  69  69 W3        30.00S
MOUNT PLEASANT SUNNY     85  64  50 W7        29.95S
MUSKEGON       PTSUNNY   80  66  62 W9G17     29.99S
SOUTH HAVEN    PTSUNNY   79  71  77 SW15G22   29.99S
$$
MIZ016>042-201800-
NORTHERN LOWER MICHIGAN

CITY           SKY/WX    TMP DP  RH WIND       PRES   REMARKS
ALPENA         CLOUDY    79  68  69 E7        29.92F
BEAVER ISLAND  SUNNY     74  63  68 SW13      29.94R
BELLAIRE       CLOUDY    76  63  63 NW5       29.95S
CADILLAC       CLOUDY    82  65  55 W13G18    29.98S
CHARLEVOIX     CLOUDY    74  59  59 SW14      29.97F
FRANKFORT      CLOUDY    74  69  83 SW5       29.97S
GAYLORD        CLOUDY    80  63  55 W20G26    29.95S
GRAYLING       CLOUDY    79  65  61 NW14      29.96F
HARBOR SPRINGS SUNNY     72  65  79 W9G17     29.94S
HOUGHTON LAKE  CLOUDY    81  66  60 W16G23    29.96S
MANISTEE       MOSUNNY   79  69  71 NW12      29.97F
OSCODA         CLOUDY    75  64  69 E7        29.92S
PELLSTON       SUNNY     78  60  53 W10       29.93S
ROGERS CITY    PTSUNNY   74  63  67 NE6       29.93R
TRAVERSE CITY  PTSUNNY   78  65  63 W8        29.94S
$$
MIZ007>008-015-201800-
EASTERN UPPER MICHIGAN

CITY           SKY/WX    TMP DP  RH WIND       PRES   REMARKS
KINROSS        SUNNY     79  62  56 W8        29.91S
MACKINAC ISLAN SUNNY     71  64  77 SW10G16   29.92S
NEWBERRY       SUNNY     78  60  52 SW7       29.91S
S. S. MARIE    SUNNY     81  61  50 SW5       29.89F
MUNISING         N/A     76  61  59 N8        29.92R
$$
MIZ004>006-011>014-085-201800-
CENTRAL UPPER MICHIGAN

CITY           SKY/WX    TMP DP  RH WIND       PRES   REMARKS
MANISTIQUE     SUNNY     81  62  53 W9        29.91F
ESCANABA       SUNNY     82  61  48 W8        29.93R
MENOMINEE      CLOUDY    78  65  63 NW6       29.96
SAWYER-GWINN   SUNNY     81  59  47 NW9       29.94S
$$
MIZ001>003-009>011-084-201800-
WESTERN UPPER MICHIGAN

CITY           SKY/WX    TMP DP  RH WIND       PRES   REMARKS
IRON MOUNTAIN  CLOUDY    82  59  45 VRB5      29.95S
HOUGHTON       MOSUNNY   73  60  63 W16       29.94R
COPPER HARBOR    N/A     65  54  67 N12       29.90S
IRONWOOD       MOSUNNY   77  67  71 NW12      29.99S
$$

ABBREVIATIONS USED IN REMARKS
   TC - TEMPERATURE IN CELSIUS
  WCI - WIND CHILL INDEX
   HX - HEAT INDEX
  VSB - VISIBILITY





USA.gov is the U.S. government's official web portal to all federal, state and local government web resources and services.